Weather History for Alpena, MI

Change the Weather History Date:

Monday, November 11, 2013

  Actual Average Record
Temperature  
Mean Temperature 32 °F 37 °F  
Max Temperature 39 °F 45 °F 66 °F (1927)
Min Temperature 24 °F 30 °F 8 °F (1926)
Degree Days  
Heating Degree Days 33 28  
Month to date heating degree days 280 286  
Since 1 July heating degree days 1210 1230  
Moisture  
Dew Point 25 °F    
Average Humidity 73    
Maximum Humidity 92    
Minimum Humidity 53    
Precipitation  
Precipitation 0.04 in 0.06 in 0.84 in (1982)
Month to date precipitation 0.83 0.78  
Year to date precipitation 28.28 25.09  
Snow  
Snow T in 0.20 in 7.20 in (1995)
Month to date snowfall T 1.6  
Since 1 July snowfall T 2.0  
Snow Depth 0.00 in    
Sea Level Pressure  
Sea Level Pressure 30.07 in    
Wind  
Wind Speed 12 mph (WNW)    
Max Wind Speed 24 mph    
Max Gust Speed 34 mph    
Visibility 8 miles    
Events Rain , Snow    
T = Trace of Precipitation, MM = Missing Value Source: NWS Daily Summary

Daily Weather History Graph

Daily Weather History Graph

Search for Another Location

Airport:

Trip Planner

Search our weather history database for the weather conditions in past years. The results will help you decide how hot, cold, wet, or windy it might be!

Date:

Astronomy

Nov. 11, 2013 Rise Set
Actual Time 7:26 AM EST 5:09 PM EST
Civil Twilight 6:55 AM EST 5:40 PM EST
Nautical Twilight 6:20 AM EST 6:15 PM EST
Astronomical Twilight 5:45 AM EST 6:50 PM EST
Moon 2:03 PM EST (11/11) 12:54 AM EST (11/11)
Length of Visible Light 10h 45m
Length of Day
9h 42m
Waxing Gibbous, 66% of the Moon is Illuminated
Nov 11
Waxing Gibbous
Nov 17
Full
Nov 25
Last Quarter
Dec 2
New
Dec 9
First Quarter

Hourly Weather History & Observations

Time (EST) Temp. Windchill Dew Point Humidity Pressure Visibility Wind Dir Wind Speed Gust Speed Precip Events Conditions
12:54 AM 35.1 °F 28.6 °F 28.0 °F 76% 30.10 in 10.0 mi SSW 8.1 mph - N/A   Scattered Clouds
1:54 AM 36.0 °F 30.3 °F 28.9 °F 76% 30.06 in 10.0 mi SSW 6.9 mph - N/A   Overcast
2:54 AM 39.0 °F 32.3 °F 30.0 °F 70% 30.02 in 10.0 mi SW 10.4 mph 18.4 mph N/A   Overcast
3:54 AM 39.0 °F 31.8 °F 30.9 °F 73% 30.01 in 10.0 mi SW 11.5 mph - N/A   Overcast
4:51 AM 37.4 °F 30.3 °F 33.8 °F 87% 29.96 in 10.0 mi SSW 10.4 mph - 0.00 in Rain Light Rain
4:54 AM 37.0 °F 30.4 °F 33.1 °F 86% 29.98 in 10.0 mi SSW 9.2 mph - 0.00 in Rain Light Rain
5:54 AM 37.0 °F 29.8 °F 34.0 °F 89% 29.96 in 10.0 mi WSW 10.4 mph - 0.00 in Rain Light Rain
6:29 AM 37.0 °F 28.9 °F 33.1 °F 86% 29.93 in 10.0 mi WSW 12.7 mph 21.9 mph 0.00 in Rain Light Rain
6:54 AM 36.0 °F 27.5 °F 34.0 °F 93% 29.95 in 10.0 mi WSW 12.7 mph - 0.01 in Rain Light Rain
7:03 AM 36.0 °F 29.6 °F 34.0 °F 93% 29.93 in 10.0 mi WSW 8.1 mph - 0.00 in Rain Light Rain
7:40 AM 36.0 °F 28.5 °F 34.0 °F 93% 29.92 in 10.0 mi WSW 10.4 mph 23.0 mph 0.00 in Rain Light Rain
7:54 AM 36.0 °F 29.6 °F 34.0 °F 93% 29.95 in 10.0 mi WSW 8.1 mph - 0.00 in Rain Light Rain
8:24 AM 36.0 °F 28.0 °F 34.0 °F 93% 29.94 in 10.0 mi WSW 11.5 mph 20.7 mph 0.00 in Rain Light Rain
8:30 AM 36.0 °F 29.0 °F 34.0 °F 93% 29.95 in 10.0 mi West 9.2 mph 19.6 mph 0.00 in Rain Light Rain
8:38 AM 36.0 °F 29.6 °F 34.0 °F 93% 29.96 in 7.0 mi West 8.1 mph - 0.00 in Rain Light Rain
8:45 AM 34.0 °F 22.7 °F 33.1 °F 96% 29.97 in 2.0 mi NW 19.6 mph 31.1 mph 0.01 in Rain Rain
8:52 AM 32.0 °F 19.8 °F 30.2 °F 93% 29.98 in 1.2 mi NW 20.7 mph 31.1 mph 0.02 in Snow Light Snow
8:54 AM 32.0 °F 21.6 °F 30.0 °F 92% 30.00 in 1.2 mi NW 15.0 mph 31.1 mph 0.03 in Snow Light Snow
8:58 AM 32.0 °F 20.5 °F 30.0 °F 92% 29.98 in 3.0 mi NNW 18.4 mph 26.5 mph 0.00 in Snow Light Snow
9:09 AM 32.0 °F 20.8 °F 30.0 °F 92% 29.98 in 2.5 mi NW 17.3 mph 25.3 mph 0.00 in Snow Light Snow
9:18 AM 32.0 °F 20.8 °F 28.9 °F 88% 29.98 in 3.0 mi NNW 17.3 mph 25.3 mph 0.00 in Snow Light Snow
9:25 AM 30.9 °F 18.4 °F 28.0 °F 89% 29.99 in 4.0 mi NNW 20.7 mph 28.8 mph 0.00 in Snow Light Snow
9:45 AM 30.0 °F 18.7 °F 27.0 °F 88% 30.00 in 2.5 mi NNW 16.1 mph 29.9 mph 0.00 in Snow Light Snow
9:54 AM 30.0 °F 18.3 °F 27.0 °F 88% 30.03 in 2.5 mi NNW 17.3 mph 20.7 mph 0.00 in Snow Light Snow
10:03 AM 30.0 °F 19.5 °F 27.0 °F 88% 30.01 in 4.0 mi NNW 13.8 mph 23.0 mph 0.00 in Snow Light Snow
10:06 AM 30.0 °F 19.5 °F 27.0 °F 88% 30.01 in 2.5 mi NNW 13.8 mph 23.0 mph 0.00 in Snow Light Snow
10:14 AM 28.9 °F 17.3 °F 27.0 °F 92% 30.02 in 1.0 mi NW 16.1 mph 25.3 mph 0.00 in Snow Light Snow
10:23 AM 30.0 °F 18.7 °F 26.1 °F 85% 30.02 in 3.0 mi NW 16.1 mph 26.5 mph 0.00 in Snow Light Snow
10:54 AM 30.0 °F 18.7 °F 26.1 °F 85% 30.05 in 10.0 mi NW 16.1 mph 23.0 mph 0.00 in   Overcast
11:24 AM 30.0 °F 18.7 °F 23.0 °F 75% 30.03 in 10.0 mi NW 16.1 mph 26.5 mph 0.00 in   Overcast
11:38 AM 30.0 °F 17.2 °F 21.0 °F 69% 30.04 in 9.0 mi NW 20.7 mph 31.1 mph 0.00 in   Overcast
11:54 AM 28.9 °F 16.5 °F 21.0 °F 72% 30.07 in 10.0 mi NW 18.4 mph 29.9 mph 0.00 in   Overcast
12:54 PM 28.9 °F 17.7 °F 17.1 °F 61% 30.08 in 10.0 mi WNW 15.0 mph 28.8 mph N/A   Clear
1:54 PM 30.0 °F 17.9 °F 15.1 °F 54% 30.09 in 10.0 mi NW 18.4 mph 31.1 mph N/A   Scattered Clouds
2:54 PM 28.9 °F 17.7 °F 15.1 °F 56% 30.11 in 10.0 mi NW 15.0 mph 29.9 mph N/A   Partly Cloudy
3:54 PM 28.9 °F 19.2 °F 16.0 °F 58% 30.13 in 10.0 mi NW 11.5 mph 20.7 mph N/A   Mostly Cloudy
4:54 PM 28.0 °F 17.0 °F 15.1 °F 58% 30.15 in 10.0 mi NW 13.8 mph 23.0 mph N/A   Partly Cloudy
5:54 PM 27.0 °F 17.3 °F 15.1 °F 61% 30.18 in 10.0 mi NW 10.4 mph 18.4 mph N/A   Clear
6:54 PM 27.0 °F 17.3 °F 16.0 °F 63% 30.21 in 10.0 mi NW 10.4 mph 20.7 mph N/A   Overcast
7:54 PM 27.0 °F 16.7 °F 17.1 °F 66% 30.23 in 10.0 mi NW 11.5 mph 17.3 mph N/A   Overcast
8:06 PM 26.1 °F 14.5 °F 19.0 °F 75% 30.21 in 1.8 mi NW 13.8 mph 27.6 mph 0.00 in Snow Light Snow
8:13 PM 25.0 °F 12.6 °F 21.0 °F 85% 30.21 in 1.0 mi NW 15.0 mph 21.9 mph 0.00 in Snow Light Snow
8:23 PM 25.0 °F 14.2 °F 21.0 °F 85% 30.21 in 3.0 mi NW 11.5 mph 24.2 mph 0.00 in Snow Light Snow
8:41 PM 25.0 °F 14.2 °F 18.0 °F 75% 30.22 in 10.0 mi NW 11.5 mph 19.6 mph 0.00 in   Overcast
8:54 PM 26.1 °F 15.6 °F 18.0 °F 71% 30.26 in 10.0 mi NW 11.5 mph 21.9 mph 0.00 in   Overcast
9:18 PM 24.1 °F 13.7 °F 19.0 °F 81% 30.24 in 5.0 mi NW 10.4 mph 26.5 mph 0.00 in Snow Light Snow
9:35 PM 24.1 °F 12.0 °F 17.1 °F 75% 30.24 in 10.0 mi NW 13.8 mph 20.7 mph 0.00 in   Partly Cloudy
9:54 PM 24.1 °F 13.1 °F 16.0 °F 71% 30.29 in 10.0 mi NW 11.5 mph - 0.00 in   Clear
10:54 PM 24.1 °F 13.7 °F 16.0 °F 71% 30.31 in 10.0 mi NW 10.4 mph - N/A   Scattered Clouds
11:54 PM 26.1 °F 16.8 °F 17.1 °F 69% 30.32 in 10.0 mi WNW 9.2 mph - N/A   Overcast